Temperature
8 6 7 7 7 8 7 7 7 8 8 8 8 8 8 9 9 9 10 10 10 11 11 11 11 11 11 11 10 11 11 11 11 11 11 11 11 10 10 10 10 10 10 10
6 7 7 7 7 7 7 7 7 7 8 8 7 8 8 8 8 9 10 10 10 11 11 11 11 11 11 11 11 11 10 10 10 11 11 11 10 10 10 10 10 10 10 10
7 8 8 8 8 7 7 7 7 7 7 8 8 8 9 9 9 9 10 10 10 11 11 11 11 11 11 11 11 11 10 10 10 10 10 10 10 10 10 10 10 10 9 9
7 7 7 8 8 8 7 8 8 7 7 6 7 7 8 8 8 8 9 10 10 11 11 11 11 11 11 11 11 10 10 10 10 10 10 10 10 10 10 10 9 9 9 9
7 7 7 8 8 8 7 7 7 7 7 7 6 7 7 7 8 8 8 9 10 11 11 11 11 11 11 11 10 10 10 10 10 10 10 10 10 9 9 9 9 9 9 8
7 7 7 7 7 7 7 7 7 6 6 7 7 6 7 7 8 8 8 10 10 10 11 11 11 11 10 10 10 10 10 10 10 10 9 9 9 9 9 9 9 8 8 8
7 7 7 7 7 7 7 7 6 7 6 7 7 6 7 8 8 8 8 9 10 10 10 10 10 10 10 10 10 10 10 10 10 9 9 9 9 9 9 8 8 8 8 8
7 7 7 7 7 7 7 7 7 7 7 6 6 6 7 8 8 8 9 9 10 10 10 10 10 10 10 10 10 10 10 10 10 9 9 9 9 8 8 8 8 8 7 7
6 7 7 7 7 7 7 6 6 6 6 6 6 6 7 8 8 8 8 9 9 10 10 10 10 10 10 10 10 10 10 10 9 9 9 9 8 8 8 8 7 7 7 7
7 7 7 7 7 7 7 6 5 6 7 7 7 7 7 9 8 7 7 8 9 9 9 10 10 10 10 10 10 9 9 9 9 9 9 8 8 8 7 7 7 7 7 6
6 6 6 6 7 7 6 6 6 5 5 6 7 8 8 7 7 7 6 8 9 9 9 9 9 9 9 9 9 9 9 9 8 8 8 8 8 7 7 7 7 6 6 6
5 5 5 6 6 6 6 6 5 6 6 5 5 7 8 7 6 6 7 8 9 9 9 9 9 9 9 9 9 9 9 8 8 8 8 7 7 7 7 7 6 6 6 6
5 5 6 7 7 6 6 6 6 5 5 4 5 7 7 6 7 7 7 8 8 9 9 9 9 9 9 9 9 8 8 8 8 8 7 7 7 7 7 6 6 6 6 6
6 5 6 7 7 6 6 6 5 5 5 4 5 6 7 7 6 6 7 8 8 8 9 8 8 8 8 9 8 8 8 8 7 7 7 7 7 7 6 6 6 6 5 5
5 5 4 4 5 5 5 5 5 5 5 5 6 5 7 6 6 6 7 7 7 8 8 8 8 8 8 8 8 8 8 7 7 7 7 7 6 6 6 6 6 5 5 5
4 5 5 4 5 4 4 5 4 4 5 5 5 6 6 6 6 6 7 7 7 7 8 8 8 8 8 8 8 7 7 7 7 7 7 6 6 6 6 5 5 5 5 4
3 4 4 4 4 5 5 5 5 5 4 4 5 6 5 5 5 5 6 6 7 7 7 7 8 8 8 8 7 7 7 7 6 6 6 6 6 6 5 5 5 4 4 4
3 3 3 3 4 5 7 6 5 5 5 4 4 4 4 5 5 6 6 6 7 7 7 7 7 7 7 7 7 7 7 6 6 6 6 5 5 5 5 5 4 4 4 4
3 3 3 3 3 4 5 5 5 5 5 5 4 4 4 5 5 6 7 6 6 6 7 7 7 7 7 7 7 6 6 6 6 5 5 5 5 5 4 4 4 4 3 3
2 2 3 3 4 5 6 6 6 6 5 5 4 4 4 4 3 4 6 6 6 6 6 6 6 6 6 6 6 6 6 6 5 5 5 5 4 4 4 4 3 3 3 3
2 2 2 3 3 4 4 5 5 5 5 5 5 4 4 3 4 5 6 6 6 6 6 6 6 6 6 6 5 5 5 5 5 4 4 4 4 4 3 3 3 3 3 2
2 2 2 2 3 4 5 4 4 4 5 5 5 4 4 4 5 5 5 5 5 5 5 5 5 5 5 5 5 5 5 5 4 4 4 3 3 3 3 3 3 2 2 2
1 2 2 3 4 4 4 4 5 5 4 5 4 4 4 4 4 4 4 4 4 4 5 5 4 4 4 4 4 4 4 4 3 3 3 3 3 3 2 2 2 2 2 2
1 1 1 1 2 3 4 4 5 4 4 4 4 4 4 4 4 4 4 4 4 4 4 4 4 4 4 4 3 3 3 3 3 3 3 2 2 2 2 2 2 1 1 1
1 1 1 1 1 2 4 4 4 4 4 4 4 3 3 3 3 3 3 3 3 3 3 3 3 3 3 3 3 3 3 2 2 2 2 2 2 2 1 1 1 1 1 1
0 1 1 2 2 2 3 3 3 3 3 3 3 3 3 2 2 2 2 2 2 2 2 2 2 2 2 2 2 2 2 2 2 1 1 1 1 1 1 1 1 0 0 0
Wind_Speed
2 2 2 5 5 5 4 5 8 8 5 4 8 11 11 7 5 6 6 5 6 6 4 3 4 4 3 3 4 4 5 6 6 4 4 4 3 2 2 2 3 4 5 6
3 3 5 4 4 4 5 6 6 7 4 3 7 11 9 6 5 6 6 6 6 4 2 2 3 3 4 5 5 5 5 5 5 4 3 3 3 3 2 3 3 3 4 4
3 4 2 2 2 3 5 6 5 6 6 3 5 8 6 5 4 4 4 4 4 5 5 4 4 4 5 6 6 6 6 6 5 5 4 4 4 3 2 3 2 2 4 4
4 4 1 2 3 2 5 5 5 4 4 4 2 5 7 5 5 5 5 4 5 5 4 4 4 4 4 5 5 5 6 6 6 6 6 6 5 4 4 3 3 3 3 4
4 2 2 3 4 3 5 3 3 3 2 3 2 2 9 4 5 7 6 6 6 5 5 5 5 5 4 4 4 4 5 5 6 6 7 6 5 3 3 4 4 3 3 3
5 3 3 4 3 2 3 3 2 3 2 2 3 2 7 4 6 6 5 5 5 4 4 4 3 3 3 2 3 4 5 5 6 6 6 7 7 6 6 5 4 3 2 2
5 3 1 1 2 3 3 4 4 5 3 5 2 3 8 7 6 6 7 6 5 4 4 4 3 3 4 4 4 4 5 5 5 6 6 6 6 7 6 5 5 4 3 2
3 6 2 1 2 1 0 3 3 2 4 6 3 5 8 6 6 5 5 5 4 3 4 4 5 5 5 5 5 5 6 5 6 6 6 5 5 5 4 5 4 4 3 2
2 5 2 1 1 3 2 2 3 3 2 4 6 7 9 5 5 4 4 4 3 4 3 4 4 4 5 6 7 7 7 6 6 6 6 5 5 5 5 4 4 3 3 2
4 4 4 2 1 1 2 5 4 2 1 5 7 5 5 7 7 6 5 5 5 3 3 3 3 3 4 5 5 6 6 6 5 6 6 5 5 5 5 5 5 4 4 3
3 2 4 2 3 4 2 2 3 3 2 2 5 7 5 6 6 6 6 5 4 3 3 3 2 2 2 3 4 5 5 5 5 6 5 5 5 5 5 5 5 4 4 4
4 3 4 6 3 2 4 4 5 2 3 3 3 8 5 4 6 5 6 5 4 3 3 2 2 2 2 3 4 5 5 5 6 6 6 5 5 5 5 5 4 4 4 4
5 3 3 5 3 1 1 3 4 4 3 4 4 8 4 5 7 7 7 6 5 4 3 2 1 2 3 3 4 4 5 5 5 5 6 5 5 5 5 4 4 4 4 4
4 4 6 7 6 3 4 5 5 5 4 6 9 12 12 10 10 9 7 6 5 4 3 2 2 2 3 3 4 4 4 4 5 5 6 6 5 5 5 4 4 4 4 4
4 4 6 8 7 5 7 8 8 10 9 10 10 10 13 10 9 8 6 5 4 5 4 4 3 3 3 3 3 4 4 4 5 6 6 6 5 5 4 4 4 4 4 4
3 3 2 5 4 5 8 10 9 10 8 10 10 12 10 7 4 5 5 4 4 5 5 4 4 3 3 4 4 4 4 5 5 6 6 5 5 5 5 5 4 4 4 3
3 4 1 4 5 5 8 7 8 6 6 7 9 10 6 6 6 6 5 4 5 6 5 4 4 4 4 4 5 5 5 5 5 5 5 5 5 5 5 4 4 4 4 3
6 5 3 2 2 6 6 1 5 5 5 6 6 7 6 7 6 5 4 3 5 6 5 5 4 4 3 3 3 3 4 5 5 5 5 5 5 5 4 4 4 4 3 4
6 7 4 3 4 8 7 3 4 4 4 4 6 7 5 4 4 3 2 2 4 5 5 5 4 3 3 2 2 3 3 4 5 5 6 6 6 6 5 5 5 4 4 4
3 4 4 4 4 6 5 2 1 3 3 2 2 3 3 3 3 5 6 5 6 5 4 4 3 2 2 2 2 3 4 4 5 6 6 5 6 6 6 6 5 4 4 5
4 3 5 6 6 8 6 3 3 2 4 3 2 2 1 2 5 6 8 6 5 5 4 4 3 2 3 2 2 3 4 5 5 4 4 4 5 6 6 5 4 4 4 4
7 6 6 5 6 8 2 3 4 4 3 3 3 3 3 6 7 6 6 6 6 6 5 3 3 4 3 1 2 3 5 4 3 3 4 4 5 4 4 5 4 4 4 4
7 7 5 8 7 3 1 3 3 2 3 3 3 5 5 6 7 7 6 6 6 6 5 4 3 4 3 2 2 4 4 3 3 3 3 3 3 3 4 5 5 4 4 4
4 2 3 4 6 5 4 4 3 3 4 5 5 5 5 7 8 7 7 6 6 5 5 4 3 3 4 3 3 4 3 2 3 3 3 3 3 3 3 4 4 4 4 4
5 3 3 6 6 6 4 4 5 5 5 5 6 6 6 7 8 7 7 7 6 6 5 4 4 5 5 4 4 3 2 2 3 3 3 3 3 3 3 3 4 4 5 5
5 6 6 7 6 5 7 6 6 6 7 7 7 7 7 6 8 7 7 6 6 6 5 4 5 5 5 4 4 3 2 3 3 3 3 2 2 2 2 2 2 5 6 7
Wind_Direction
41 60 256 244 221 238 251 256 276 274 283 277 263 272 280 277 258 261 260 252 247 243 239 204 190 175 165 163 163 166 160 154 149 144 145 139 142 137 127 133 137 136 142 141
32 273 253 246 235 245 251 269 283 293 303 272 279 278 273 256 245 243 246 248 241 244 235 201 180 176 182 182 177 173 170 163 165 161 143 129 126 127 124 121 122 137 138 141
218 254 263 236 262 268 260 240 261 286 322 324 314 304 284 274 256 263 255 246 238 228 226 207 198 198 191 189 187 189 180 168 162 143 118 103 93 88 99 108 114 136 146 141
258 268 269 261 254 210 270 243 248 284 327 313 2 302 293 283 287 266 257 248 245 242 235 206 199 205 209 203 189 184 174 164 159 150 150 147 151 157 169 144 136 125 140 144
271 266 255 256 253 207 247 282 264 266 241 305 326 260 290 307 285 274 260 246 244 239 228 216 206 207 209 199 182 181 165 159 156 158 164 155 147 145 128 119 125 124 112 125
254 260 230 240 272 221 275 352 22 44 66 297 258 208 286 272 251 270 269 257 245 236 229 226 215 189 186 174 172 172 162 159 155 157 159 158 155 147 138 137 142 139 125 111
318 294 259 232 342 7 35 52 15 359 358 266 271 228 257 267 260 254 264 267 255 225 218 222 214 200 191 182 179 178 169 165 160 158 161 165 163 158 161 159 159 155 148 151
326 302 263 210 188 211 256 126 141 239 268 291 316 257 262 273 280 273 268 266 261 239 226 227 226 214 204 194 182 179 178 173 167 166 167 162 160 160 164 161 158 162 167 171
226 275 306 240 225 151 134 157 169 154 272 280 282 290 303 302 314 314 309 302 279 258 240 236 230 213 204 196 189 185 182 175 173 173 164 160 161 162 164 158 154 156 160 157
176 269 290 309 68 26 153 148 105 123 315 295 298 293 281 306 311 320 323 312 297 289 270 256 247 218 203 196 184 174 178 180 175 171 170 168 167 167 162 155 162 165 163 153
162 214 301 337 201 202 138 134 132 144 176 214 298 286 240 265 291 297 296 294 290 280 272 255 240 221 198 179 169 172 174 171 170 173 169 160 165 163 157 163 171 169 162 160
166 144 270 266 251 196 185 182 158 173 245 201 237 273 280 280 299 301 301 303 302 293 284 264 226 190 182 182 180 180 179 179 179 172 165 166 162 158 161 169 172 167 166 168
146 133 329 338 353 3 244 209 181 156 157 192 217 266 303 338 332 328 321 319 319 314 309 301 269 220 203 194 188 183 183 184 172 162 161 162 164 166 174 178 174 170 168 168
134 165 197 225 246 229 254 235 197 174 208 236 236 262 292 311 316 321 321 314 314 310 306 292 267 251 230 207 193 186 190 182 169 164 165 172 180 181 182 178 174 174 170 172
131 219 238 255 263 249 244 242 217 211 215 228 251 259 278 292 293 302 309 318 328 321 312 291 267 252 237 214 200 191 189 180 171 167 175 187 183 174 170 173 176 173 175 184
139 214 260 282 271 256 265 255 230 229 231 242 264 273 276 288 304 316 320 323 317 310 305 295 279 262 245 225 208 197 192 183 171 176 186 182 172 172 177 181 177 176 184 187
179 173 213 273 304 321 277 246 211 213 215 208 239 260 299 311 310 303 300 310 298 298 299 297 288 269 252 233 210 201 196 178 174 182 184 180 176 179 186 182 178 189 196 193
167 165 191 270 349 253 250 229 186 205 245 224 247 279 288 279 288 281 269 290 304 306 304 299 295 292 280 246 219 196 172 172 179 184 189 185 179 185 185 184 195 203 199 201
180 170 181 199 250 273 289 262 185 196 271 232 242 277 304 309 331 317 292 303 289 290 289 284 276 271 272 262 210 174 175 176 182 195 199 195 187 187 190 199 207 207 200 208
136 159 176 189 224 248 255 265 191 133 284 289 251 284 310 11 359 296 312 317 304 304 299 296 298 294 284 270 175 172 190 194 209 212 209 198 190 191 200 207 210 208 204 211
140 168 200 210 233 262 262 263 116 164 262 309 295 287 276 252 247 276 306 309 304 307 307 307 306 296 278 251 176 192 207 222 225 209 200 197 195 199 202 203 205 201 203 206
180 182 197 188 217 253 256 124 165 228 282 298 292 281 277 277 283 291 299 303 310 313 314 312 305 300 295 253 196 219 234 236 212 196 200 206 205 203 197 194 202 198 196 209
202 198 194 199 217 253 215 207 259 253 277 288 285 289 288 286 288 293 295 298 301 300 303 302 288 295 299 270 225 237 248 223 201 201 210 216 212 208 199 198 200 200 198 209
254 220 204 252 265 270 278 279 288 277 269 279 282 288 286 281 286 292 294 297 300 297 299 302 298 291 291 283 259 245 247 217 198 211 218 211 209 215 211 207 200 202 206 215
238 203 230 258 280 305 299 284 286 293 291 289 289 284 279 279 284 284 287 289 290 293 295 294 286 282 283 283 274 265 240 211 215 225 229 223 217 212 214 218 216 216 218 215
215 213 223 251 253 258 276 287 291 292 294 295 297 298 293 276 277 282 281 280 282 285 288 287 282 280 283 281 275 270 243 212 206 223 227 221 212 213 213 226 268 254 244 250
Height
1511 1514 1515 1513 1513 1512 1512 1512 1510 1504 1499 1498 1495 1492 1486 1484 1483 1482 1481 1481 1481 1481 1483 1484 1485 1486 1488 1489 1490 1492 1493 1496 1499 1501 1503 1505 1508 1511 1513 1515 1516 1518 1520 1522
1514 1514 1511 1510 1510 1510 1510 1509 1507 1502 1498 1497 1494 1489 1483 1481 1480 1479 1479 1479 1479 1480 1481 1482 1483 1484 1485 1486 1488 1490 1492 1494 1497 1499 1501 1504 1506 1508 1511 1513 1515 1516 1518 1519
1513 1511 1508 1508 1508 1509 1508 1508 1506 1504 1500 1496 1495 1488 1482 1478 1477 1477 1477 1477 1477 1478 1478 1480 1481 1481 1483 1484 1485 1487 1490 1492 1495 1497 1499 1501 1503 1506 1508 1510 1513 1515 1516 1518
1512 1509 1508 1508 1507 1507 1507 1503 1503 1503 1504 1504 1501 1500 1484 1479 1477 1475 1474 1474 1474 1475 1476 1477 1478 1479 1480 1482 1484 1486 1488 1490 1493 1495 1497 1499 1501 1504 1506 1508 1511 1513 1514 1516
1510 1507 1507 1507 1505 1505 1504 1501 1502 1502 1503 1505 1503 1504 1490 1480 1477 1474 1472 1471 1472 1473 1473 1474 1476 1477 1479 1480 1482 1484 1486 1488 1490 1493 1495 1497 1500 1503 1505 1507 1509 1511 1513 1514
1509 1506 1506 1505 1503 1503 1502 1502 1502 1505 1507 1506 1501 1504 1494 1482 1476 1472 1469 1469 1469 1470 1471 1472 1474 1475 1476 1478 1480 1482 1484 1486 1488 1491 1493 1495 1498 1501 1503 1504 1506 1508 1510 1512
1509 1505 1504 1504 1504 1503 1504 1508 1513 1511 1514 1507 1501 1501 1491 1475 1471 1470 1468 1467 1467 1468 1469 1470 1471 1472 1474 1476 1478 1480 1482 1484 1487 1489 1492 1494 1496 1499 1500 1502 1504 1506 1507 1509
1513 1510 1504 1503 1504 1506 1506 1508 1515 1515 1515 1509 1503 1499 1483 1472 1469 1467 1466 1466 1465 1466 1467 1468 1469 1471 1472 1474 1475 1477 1480 1483 1485 1488 1490 1492 1494 1496 1498 1500 1502 1504 1505 1506
1514 1510 1503 1502 1502 1503 1505 1510 1510 1516 1516 1515 1504 1495 1481 1469 1468 1466 1465 1464 1464 1464 1465 1466 1467 1468 1470 1472 1473 1476 1478 1481 1483 1486 1488 1490 1492 1494 1496 1498 1499 1501 1502 1504
1510 1512 1505 1503 1502 1503 1504 1507 1514 1514 1512 1510 1501 1496 1488 1472 1469 1467 1466 1464 1463 1463 1464 1464 1465 1466 1468 1470 1472 1474 1476 1479 1481 1483 1486 1488 1490 1491 1493 1495 1497 1498 1500 1501
1508 1512 1508 1505 1503 1503 1506 1507 1509 1514 1514 1512 1508 1493 1477 1474 1470 1469 1466 1464 1463 1463 1463 1463 1464 1465 1466 1467 1469 1471 1473 1476 1478 1481 1483 1485 1487 1489 1491 1492 1494 1495 1497 1498
1507 1513 1513 1505 1501 1501 1501 1503 1507 1510 1510 1514 1513 1496 1472 1472 1469 1467 1466 1464 1463 1462 1462 1463 1463 1464 1465 1466 1467 1469 1471 1474 1476 1478 1480 1482 1484 1486 1488 1489 1491 1492 1493 1494
1506 1510 1510 1504 1505 1504 1502 1501 1503 1506 1510 1515 1512 1492 1472 1471 1468 1467 1465 1463 1462 1462 1461 1461 1462 1462 1463 1464 1466 1467 1469 1471 1473 1476 1478 1480 1481 1483 1485 1486 1488 1489 1490 1491
1501 1507 1509 1505 1499 1500 1501 1500 1501 1503 1507 1506 1499 1486 1474 1472 1470 1467 1465 1464 1462 1461 1461 1460 1461 1461 1462 1463 1464 1465 1467 1469 1471 1473 1475 1476 1478 1480 1482 1483 1485 1486 1486 1487
1501 1505 1505 1502 1499 1499 1497 1495 1497 1498 1496 1495 1487 1484 1474 1472 1470 1467 1465 1463 1462 1461 1460 1459 1459 1460 1460 1461 1462 1464 1465 1466 1468 1470 1472 1473 1475 1477 1479 1480 1481 1482 1482 1483
1501 1503 1502 1500 1495 1496 1494 1490 1491 1491 1490 1488 1484 1479 1471 1470 1468 1466 1464 1463 1461 1460 1459 1459 1458 1458 1459 1459 1460 1461 1462 1464 1465 1467 1469 1471 1472 1474 1475 1476 1477 1478 1478 1479
1501 1503 1503 1501 1497 1493 1489 1481 1482 1483 1482 1482 1480 1474 1470 1469 1467 1465 1463 1462 1461 1459 1458 1457 1457 1457 1457 1457 1458 1459 1460 1462 1463 1465 1466 1467 1469 1470 1471 1472 1473 1474 1474 1475
1499 1501 1503 1504 1499 1494 1479 1474 1474 1476 1476 1476 1474 1471 1470 1468 1465 1464 1463 1461 1460 1458 1457 1456 1455 1455 1455 1456 1456 1457 1458 1459 1460 1462 1463 1464 1465 1466 1467 1468 1469 1470 1470 1471
1492 1497 1501 1503 1501 1489 1477 1473 1473 1474 1473 1471 1471 1469 1468 1466 1463 1462 1462 1461 1459 1458 1456 1455 1454 1454 1454 1454 1454 1454 1455 1456 1457 1458 1459 1460 1461 1462 1463 1464 1465 1465 1466 1466
1492 1493 1497 1499 1495 1486 1474 1470 1469 1471 1472 1468 1468 1467 1467 1465 1467 1463 1460 1459 1457 1456 1455 1453 1452 1452 1452 1452 1451 1452 1452 1453 1454 1455 1456 1457 1457 1458 1459 1459 1460 1461 1461 1461
1493 1495 1495 1495 1492 1482 1472 1469 1469 1475 1473 1468 1466 1466 1465 1465 1465 1462 1459 1457 1455 1454 1453 1451 1450 1449 1449 1449 1449 1449 1449 1450 1450 1451 1452 1453 1453 1454 1454 1455 1455 1456 1456 1456
1486 1489 1490 1490 1490 1481 1468 1469 1471 1471 1468 1466 1465 1464 1464 1462 1460 1458 1456 1454 1453 1451 1450 1449 1448 1447 1446 1446 1446 1445 1445 1446 1447 1447 1447 1448 1449 1449 1450 1450 1450 1451 1451 1451
1480 1478 1478 1478 1474 1469 1467 1467 1467 1467 1466 1464 1463 1462 1461 1459 1457 1455 1453 1452 1450 1448 1447 1446 1445 1444 1443 1443 1442 1442 1442 1442 1442 1442 1443 1443 1444 1444 1445 1445 1445 1445 1445 1446
1475 1473 1474 1474 1469 1466 1465 1465 1465 1465 1464 1462 1461 1460 1458 1456 1454 1452 1450 1448 1447 1445 1444 1443 1441 1440 1439 1439 1439 1439 1438 1438 1438 1438 1438 1439 1439 1439 1440 1440 1440 1440 1440 1440
1472 1472 1472 1470 1466 1464 1463 1463 1462 1462 1460 1459 1457 1456 1454 1452 1450 1448 1446 1445 1443 1442 1441 1440 1438 1437 1436 1436 1435 1435 1435 1434 1434 1434 1434 1434 1434 1435 1435 1435 1435 1435 1435 1436
1468 1468 1469 1466 1463 1463 1461 1460 1459 1458 1456 1454 1453 1451 1449 1448 1446 1444 1442 1441 1439 1438 1437 1436 1435 1434 1433 1432 1431 1431 1430 1430 1430 1430 1430 1430 1430 1430 1430 1430 1430 1430 1431 1431